DW2047 Weather Reports


time (UTC)temp
C
wind
direction
speed
KPH
gust
KPH
rain 1hr
cm
rain 24hr
cm
rain mn
cm
humidity
%
barometer
mb
20260503212509 26 144 8.0 0.0 0.00 0.00 0.00 37 1019.1
20260503212048 26 128 6.4 0.0 0.00 0.00 0.00 37 1019.2
20260503211533 25 150 8.0 0.0 0.00 0.00 0.00 35 1019.3
20260503211006 26 150 8.0 0.0 0.00 0.00 0.00 35 1019.3
20260503210549 26 145 8.0 0.0 0.00 0.00 0.00 35 1019.3
20260503210049 26 151 6.4 0.0 0.00 0.00 0.00 36 1019.5
20260503205526 26 143 8.0 0.0 0.00 0.00 0.00 35 1019.7
20260503205103 26 143 8.0 0.0 0.00 0.00 0.00 34 1019.7
20260503204605 26 138 8.0 0.0 0.00 0.00 0.00 32 1019.6
20260503204038 26 159 6.4 0.0 0.00 0.00 0.00 34 1019.7
20260503203515 26 180 6.4 0.0 0.00 0.00 0.00 34 1019.8
20260503203024 26 137 8.0 0.0 0.00 0.00 0.00 37 1019.9
20260503202555 26 123 9.7 0.0 0.00 0.00 0.00 35 1020.0
20260503202026 26 161 8.0 0.0 0.00 0.00 0.00 36 1020.3
20260503201536 26 183 6.4 0.0 0.00 0.00 0.00 35 1020.3
20260503201004 26 138 6.4 0.0 0.00 0.00 0.00 34 1020.5
20260503200540 26 176 6.4 0.0 0.00 0.00 0.00 33 1020.5
20260503200046 26 142 6.4 0.0 0.00 0.00 0.00 35 1020.5
20260503195515 26 152 8.0 0.0 0.00 0.00 0.00 33 1020.6
20260503195054 26 139 6.4 0.0 0.00 0.00 0.00 33 1020.7
20260503194542 26 141 8.0 0.0 0.00 0.00 0.00 37 1020.7
20260503194014 26 140 8.0 0.0 0.00 0.00 0.00 34 1020.8
20260503193553 26 134 4.8 0.0 0.00 0.00 0.00 35 1020.8
20260503193049 26 169 4.8 0.0 0.00 0.00 0.00 36 1020.8
20260503192515 26 154 6.4 0.0 0.00 0.00 0.00 35 1021.0
20260503192057 26 140 8.0 0.0 0.00 0.00 0.00 37 1021.0
20260503191610 25 142 9.7 0.0 0.00 0.00 0.00 34 1021.1
20260503191043 26 136 8.0 0.0 0.00 0.00 0.00 36 1021.1
20260503190520 26 180 6.4 0.0 0.00 0.00 0.00 36 1021.2
20260503190018 25 130 8.0 0.0 0.00 0.00 0.00 36 1021.3
20260503185558 25 115 11.3 0.0 0.00 0.00 0.00 35 1021.4
20260503185033 25 157 9.7 0.0 0.00 0.00 0.00 33 1021.5
20260503184536 25 167 8.0 0.0 0.00 0.00 0.00 35 1021.7
20260503184008 25 169 8.0 0.0 0.00 0.00 0.00 39 1021.6
20260503183544 25 126 8.0 0.0 0.00 0.00 0.00 37 1021.7
20260503183050 26 155 6.4 0.0 0.00 0.00 0.00 38 1021.7
20260503182526 25 186 6.4 0.0 0.00 0.00 0.00 38 1021.9
20260503182105 25 296 8.0 0.0 0.00 0.00 0.00 38 1022.0
20260503181604 25 127 9.7 0.0 0.00 0.00 0.00 35 1022.1
20260503181028 25 143 8.0 0.0 0.00 0.00 0.00 37 1022.2
20260503180501 25 165 8.0 0.0 0.00 0.00 0.00 35 1022.4
20260503180011 25 160 6.4 0.0 0.00 0.00 0.00 37 1022.5
20260503175541 25 147 6.4 0.0 0.00 0.00 0.00 38 1022.5
20260503175017 25 126 6.4 0.0 0.00 0.00 0.00 38 1022.6
20260503174523 25 139 4.8 0.0 0.00 0.00 0.00 37 1022.7
20260503174101 25 140 6.4 0.0 0.00 0.00 0.00 38 1022.7
20260503173538 25 144 6.4 0.0 0.00 0.00 0.00 35 1022.8
20260503173053 25 145 4.8 0.0 0.00 0.00 0.00 37 1022.8
20260503172511 25 165 4.8 0.0 0.00 0.00 0.00 38 1022.9
20260503172048 25 215 3.2 0.0 0.00 0.00 0.00 44 1022.9
20260503171538 25 144 3.2 0.0 0.00 0.00 0.00 42 1023.0
20260503171007 25 223 1.6 0.0 0.00 0.00 0.00 44 1023.1
20260503170544 24 248 1.6 0.0 0.00 0.00 0.00 42 1023.1
20260503151008 21 169 3.2 0.0 0.00 0.00 0.00 55 1023.7
20260503150548 21 263 3.2 0.0 0.00 0.00 0.00 58 1023.8
20260503131040 12 71 1.6 0.0 0.00 0.00 0.00 91 1023.5
20260503130508 12 71 0.0 0.0 0.00 0.00 0.00 92 1023.4
20260503130104 11 71 0.0 0.0 0.00 0.00 0.00 92 1023.4
20260503110512 9 71 0.0 0.0 0.00 0.00 0.00 92 1022.3
20260503100109 9 71 0.0 0.0 0.00 0.00 0.00 92 1022.1
20260503090105 10 71 0.0 0.0 0.00 0.00 0.00 92 1022.0
20260503081534 10 71 0.0 0.0 0.00 0.00 0.00 92 1022.0
20260503081003 10 71 0.0 0.0 0.00 0.00 0.00 92 1022.0
20260503080544 10 71 0.0 0.0 0.00 0.00 0.00 92 1022.0
20260503072527 10 71 0.0 0.0 0.00 0.00 0.00 92 1022.3
20260503072103 10 71 0.0 0.0 0.00 0.00 0.00 92 1022.3
20260503071558 10 71 0.0 0.0 0.00 0.00 0.00 92 1022.4
20260503071025 10 71 0.0 0.0 0.00 0.00 0.00 92 1022.3
20260503070604 10 71 0.0 0.0 0.00 0.00 0.00 92 1022.4
20260503060108 11 71 0.0 0.0 0.00 0.00 0.00 91 1022.5
20260503055005 11 71 0.0 0.0 0.00 0.00 0.00 91 1022.5
20260503054511 11 71 0.0 0.0 0.00 0.00 0.00 91 1022.6
20260503054050 11 71 0.0 0.0 0.00 0.00 0.00 91 1022.6
20260503053520 11 71 0.0 0.0 0.00 0.00 0.00 91 1022.7
20260503053024 11 71 0.0 0.0 0.00 0.00 0.00 91 1022.7
20260503052559 12 71 0.0 0.0 0.00 0.00 0.00 91 1022.8
20260503052027 12 71 0.0 0.0 0.00 0.00 0.00 91 1022.7
20260503051533 12 71 0.0 0.0 0.00 0.00 0.00 91 1022.7
20260503051008 12 71 0.0 0.0 0.00 0.00 0.00 90 1022.7
20260503050544 12 71 0.0 0.0 0.00 0.00 0.00 90 1022.6
20260503050056 12 71 0.0 0.0 0.00 0.00 0.00 90 1022.6
20260503045532 12 71 0.0 0.0 0.00 0.00 0.00 90 1022.6
20260503045002 12 71 0.0 0.0 0.00 0.00 0.00 90 1022.4
20260503044504 12 71 0.0 0.0 0.00 0.00 0.00 90 1022.5
20260503044041 12 71 0.0 0.0 0.00 0.00 0.00 90 1022.5
20260503043510 12 71 0.0 0.0 0.00 0.00 0.00 90 1022.6
20260503043019 12 71 0.0 0.0 0.00 0.00 0.00 90 1022.5
20260503042554 12 71 0.0 0.0 0.00 0.00 0.00 89 1022.4
20260503042025 13 71 0.0 0.0 0.00 0.00 0.00 89 1022.5
20260503041525 13 71 0.0 0.0 0.00 0.00 0.00 89 1022.4
20260503041105 13 71 0.0 0.0 0.00 0.00 0.00 89 1022.4
20260503040533 13 71 0.0 0.0 0.00 0.00 0.00 89 1022.4
20260503040038 13 71 0.0 0.0 0.00 0.00 0.00 89 1022.4
20260503035508 13 71 0.0 0.0 0.00 0.00 0.00 88 1022.3
20260503035047 13 71 0.0 0.0 0.00 0.00 0.00 88 1022.4
20260503034550 13 71 0.0 0.0 0.00 0.00 0.00 88 1022.4
20260503034021 13 71 0.0 0.0 0.00 0.00 0.00 87 1022.2
20260503033557 13 71 0.0 0.0 0.00 0.00 0.00 87 1022.1
20260503033110 14 71 0.0 0.0 0.00 0.00 0.00 87 1022.1
20260503032532 14 71 0.0 0.0 0.00 0.00 0.00 87 1022.1
20260503032008 14 71 0.0 0.0 0.00 0.00 0.00 86 1022.1
20260503031605 14 71 0.0 0.0 0.00 0.00 0.00 85 1022.1
20260503031034 14 71 0.0 0.0 0.00 0.00 0.00 84 1021.9
20260503030507 15 71 0.0 0.0 0.00 0.00 0.00 83 1022.0
20260503030100 15 71 0.0 0.0 0.00 0.00 0.00 82 1022.1
20260503025533 15 71 0.0 0.0 0.00 0.00 0.00 80 1022.0
20260503025009 15 71 0.0 0.0 0.00 0.00 0.00 79 1022.0
20260503024611 15 71 0.0 0.0 0.00 0.00 0.00 78 1021.9
20260503024037 15 71 0.0 0.0 0.00 0.00 0.00 77 1021.8
20260503023506 15 71 0.0 0.0 0.00 0.00 0.00 77 1021.6
20260503023035 16 71 0.0 0.0 0.00 0.00 0.00 76 1021.4
20260503022550 16 71 0.0 0.0 0.00 0.00 0.00 75 1021.3
20260503022025 16 71 0.0 0.0 0.00 0.00 0.00 74 1021.3
20260503021525 16 71 0.0 0.0 0.00 0.00 0.00 73 1021.3
20260503021002 16 71 0.0 0.0 0.00 0.00 0.00 72 1021.2
20260503020541 16 71 0.0 0.0 0.00 0.00 0.00 71 1021.3
20260503020045 17 71 0.0 0.0 0.00 0.00 0.00 70 1021.3
20260503015514 17 71 0.0 0.0 0.00 0.00 0.00 69 1021.3
20260503015050 17 71 0.0 0.0 0.00 0.00 0.00 69 1021.2
20260503014541 17 71 0.0 0.0 0.00 0.00 0.00 68 1021.1
20260503014017 18 71 0.0 0.0 0.00 0.00 0.00 66 1021.2
20260503013554 18 71 0.0 0.0 0.00 0.00 0.00 63 1021.2
20260503013116 18 71 0.0 0.0 0.00 0.00 0.00 63 1021.1
20260503012537 19 71 0.0 0.0 0.00 0.00 0.00 62 1021.0
20260503012007 20 71 0.0 0.0 0.00 0.00 0.00 61 1020.9
20260503011511 20 71 0.0 0.0 0.00 0.00 0.00 61 1020.9
20260503011050 21 71 0.0 0.0 0.00 0.00 0.00 61 1020.8
20260503010520 21 71 0.0 0.0 0.00 0.00 0.00 56 1020.9
20260503010032 21 71 0.0 0.0 0.00 0.00 0.00 52 1020.9
20260503005502 22 71 0.0 0.0 0.00 0.00 0.00 50 1020.9
20260503005037 22 71 0.0 0.0 0.00 0.00 0.00 50 1020.9
20260503004540 22 71 0.0 0.0 0.00 0.00 0.00 48 1020.7
20260503004012 23 71 0.0 0.0 0.00 0.00 0.00 48 1020.7
20260503003551 23 71 0.0 0.0 0.00 0.00 0.00 46 1020.7
20260503003036 23 71 0.0 0.0 0.00 0.00 0.00 45 1020.8
20260503002514 23 71 0.0 0.0 0.00 0.00 0.00 44 1020.8
20260503002051 23 71 1.6 0.0 0.00 0.00 0.00 42 1020.7
20260503001554 24 71 1.6 0.0 0.00 0.00 0.00 41 1020.7
20260503001024 24 71 1.6 0.0 0.00 0.00 0.00 41 1020.7
20260503000601 24 71 1.6 0.0 0.00 0.00 0.00 40 1020.7
20260502235523 25 71 1.6 0.0 0.00 0.00 0.00 39 1020.6
20260502235103 25 71 1.6 0.0 0.00 0.00 0.00 39 1020.6
20260502234553 25 71 1.6 0.0 0.00 0.00 0.00 38 1020.6
20260502234029 25 69 1.6 0.0 0.00 0.00 0.00 40 1020.7
20260502233605 25 69 1.6 0.0 0.00 0.00 0.00 38 1020.5
20260502233009 25 69 3.2 0.0 0.00 0.00 0.00 39 1020.6
20260502232544 25 69 3.2 0.0 0.00 0.00 0.00 37 1020.6
20260502232023 25 71 1.6 0.0 0.00 0.00 0.00 37 1020.6
20260502231528 25 69 1.6 0.0 0.00 0.00 0.00 38 1020.6
20260502231002 25 69 3.2 0.0 0.00 0.00 0.00 36 1020.6
20260502230539 25 68 3.2 0.0 0.00 0.00 0.00 40 1020.6
20260502230042 25 67 1.6 0.0 0.00 0.00 0.00 39 1020.6
20260502225516 24 67 1.6 0.0 0.00 0.00 0.00 40 1020.6
20260502225050 24 67 1.6 0.0 0.00 0.00 0.00 40 1020.6
20260502224557 24 67 1.6 0.0 0.00 0.00 0.00 42 1020.6
20260502224026 25 71 1.6 0.0 0.00 0.00 0.00 41 1020.5
20260502223606 25 71 1.6 0.0 0.00 0.00 0.00 41 1020.6
20260502223009 25 71 1.6 0.0 0.00 0.00 0.00 40 1020.7
20260502222547 25 69 1.6 0.0 0.00 0.00 0.00 38 1020.7
20260502222014 25 62 1.6 0.0 0.00 0.00 0.00 40 1020.8
20260502221519 25 62 3.2 0.0 0.00 0.00 0.00 40 1020.8
20260502221058 25 75 3.2 0.0 0.00 0.00 0.00 42 1020.8
20260502220528 24 64 1.6 0.0 0.00 0.00 0.00 41 1020.8
20260502220031 24 75 1.6 0.0 0.00 0.00 0.00 41 1020.8
20260502215505 24 76 3.2 0.0 0.00 0.00 0.00 42 1020.8
20260502215038 24 54 1.6 0.0 0.00 0.00 0.00 43 1020.8
20260502214552 25 36 1.6 0.0 0.00 0.00 0.00 43 1020.9
20260502214025 25 344 1.6 0.0 0.00 0.00 0.00 43 1021.0
20260502213502 25 63 3.2 0.0 0.00 0.00 0.00 43 1021.1
20260502213057 25 42 3.2 0.0 0.00 0.00 0.00 44 1021.1